| time (UTC) | temp C | wind direction | speed KPH | gust KPH | rain 1hr cm | rain 24hr cm | rain mn cm | humidity % | barometer mb |
| 20260507060903 | 8 | 69 | 0.0 | 3.2 | 0.00 | 0.00 | 0.00 | 88 | 1013.2 |
| 20260507060003 | 8 | 71 | 1.6 | 3.2 | 0.00 | 0.00 | 0.00 | 89 | 1013.4 |
| 20260507055403 | 8 | 57 | 1.6 | 4.8 | 0.00 | 0.00 | 0.00 | 91 | 1013.4 |
| 20260507054503 | 7 | 51 | 3.2 | 4.8 | 0.00 | 0.00 | 0.00 | 92 | 1013.3 |
| 20260507053603 | 7 | 60 | 1.6 | 4.8 | 0.00 | 0.00 | 0.00 | 94 | 1013.3 |
| 20260507052918 | 7 | 63 | 1.6 | 4.8 | 0.00 | 0.00 | 0.00 | 95 | 1013.3 |
| 20260507051803 | 6 | 63 | 1.6 | 3.2 | 0.00 | 0.00 | 0.00 | 95 | 1013.1 |
| 20260507050903 | 7 | 62 | 1.6 | 9.7 | 0.00 | 0.00 | 0.00 | 95 | 1013.2 |
| 20260507050003 | 6 | 54 | 1.6 | 4.8 | 0.00 | 0.00 | 0.00 | 96 | 1013.3 |
| 20260507042703 | 7 | 52 | 6.4 | 14.5 | 0.00 | 0.00 | 0.00 | 96 | 1013.4 |
| 20260507041803 | 7 | 52 | 4.8 | 16.1 | 0.00 | 0.00 | 0.00 | 96 | 1013.3 |
| 20260507041117 | 7 | 47 | 3.2 | 14.5 | 0.00 | 0.00 | 0.00 | 96 | 1013.3 |
| 20260507040003 | 7 | 76 | 1.6 | 6.4 | 0.00 | 0.00 | 0.00 | 96 | 1013.4 |
| 20260507035618 | 7 | 81 | 1.6 | 6.4 | 0.00 | 0.00 | 0.00 | 96 | 1013.5 |
| 20260507034717 | 7 | 53 | 3.2 | 11.3 | 0.00 | 0.00 | 0.00 | 96 | 1013.5 |
| 20260507033603 | 7 | 35 | 6.4 | 12.9 | 0.00 | 0.00 | 0.00 | 96 | 1013.4 |
| 20260507032917 | 7 | 36 | 6.4 | 12.9 | 0.00 | 0.00 | 0.00 | 96 | 1013.5 |
| 20260507031803 | 7 | 35 | 1.6 | 9.7 | 0.00 | 0.00 | 0.00 | 96 | 1013.6 |
| 20260507030903 | 7 | 0 | 0.0 | 0.0 | 0.00 | 0.00 | 0.00 | 96 | 1013.7 |
| 20260507024503 | 7 | 86 | 0.0 | 3.2 | 0.00 | 0.00 | 0.00 | 96 | 1013.5 |
| 20260507023603 | 7 | 0 | 0.0 | 0.0 | 0.00 | 0.00 | 0.00 | 96 | 1013.6 |
| 20260507022703 | 7 | 64 | 0.0 | 1.6 | 0.00 | 0.00 | 0.00 | 96 | 1013.6 |
| 20260507021803 | 7 | 67 | 0.0 | 3.2 | 0.00 | 0.00 | 0.00 | 95 | 1013.9 |
| 20260507020903 | 7 | 62 | 0.0 | 1.6 | 0.00 | 0.00 | 0.00 | 95 | 1013.8 |
| 20260507015403 | 7 | 60 | 1.6 | 4.8 | 0.00 | 0.00 | 0.00 | 94 | 1013.7 |
| 20260507014503 | 7 | 27 | 0.0 | 4.8 | 0.00 | 0.00 | 0.00 | 94 | 1013.8 |
| 20260507013603 | 7 | 80 | 0.0 | 3.2 | 0.00 | 0.00 | 0.00 | 94 | 1013.9 |
| 20260507012917 | 7 | 67 | 1.6 | 3.2 | 0.00 | 0.00 | 0.00 | 93 | 1013.7 |
| 20260507011803 | 7 | 51 | 3.2 | 6.4 | 0.00 | 0.00 | 0.00 | 93 | 1014.1 |
| 20260507010003 | 7 | 69 | 1.6 | 4.8 | 0.00 | 0.00 | 0.00 | 93 | 1014.2 |
| 20260507005618 | 7 | 67 | 1.6 | 4.8 | 0.00 | 0.00 | 0.00 | 93 | 1014.1 |
| 20260507004503 | 7 | 64 | 3.2 | 9.7 | 0.00 | 0.00 | 0.00 | 93 | 1014.2 |
| 20260507003603 | 7 | 60 | 4.8 | 11.3 | 0.00 | 0.00 | 0.00 | 93 | 1014.0 |
| 20260507002703 | 7 | 62 | 3.2 | 9.7 | 0.00 | 0.00 | 0.00 | 93 | 1014.2 |
| 20260507000903 | 7 | 58 | 3.2 | 11.3 | 0.00 | 0.00 | 0.00 | 92 | 1014.3 |
| 20260507000003 | 7 | 59 | 3.2 | 11.3 | 0.00 | 0.00 | 0.00 | 91 | 1014.6 |
| 20260506235618 | 7 | 59 | 3.2 | 9.7 | 0.00 | 0.00 | 0.00 | 91 | 1014.5 |
| 20260506234504 | 7 | 57 | 4.8 | 14.5 | 0.00 | 0.00 | 0.00 | 91 | 1014.3 |
| 20260506233603 | 7 | 54 | 4.8 | 12.9 | 0.00 | 0.00 | 0.00 | 91 | 1014.6 |
| 20260506231803 | 7 | 63 | 4.8 | 9.7 | 0.00 | 0.00 | 0.00 | 91 | 1014.5 |
| 20260506230903 | 7 | 52 | 4.8 | 11.3 | 0.00 | 0.00 | 0.00 | 91 | 1014.6 |
| 20260506230003 | 7 | 62 | 4.8 | 11.3 | 0.00 | 0.00 | 0.00 | 91 | 1014.3 |
| 20260506225403 | 7 | 55 | 4.8 | 14.5 | 0.00 | 0.00 | 0.00 | 91 | 1014.4 |
| 20260506224716 | 7 | 53 | 6.4 | 14.5 | 0.00 | 0.00 | 0.00 | 92 | 1014.3 |
| 20260506222703 | 7 | 48 | 4.8 | 12.9 | 0.00 | 0.00 | 0.00 | 92 | 1014.6 |
| 20260506221803 | 7 | 62 | 4.8 | 12.9 | 0.00 | 0.00 | 0.00 | 92 | 1014.5 |
| 20260506220903 | 7 | 59 | 3.2 | 12.9 | 0.00 | 0.00 | 0.00 | 92 | 1014.5 |
| 20260506220003 | 8 | 70 | 3.2 | 12.9 | 0.00 | 0.00 | 0.00 | 92 | 1014.3 |
| 20260506215617 | 8 | 70 | 3.2 | 12.9 | 0.00 | 0.00 | 0.00 | 91 | 1014.6 |
| 20260506213603 | 8 | 70 | 4.8 | 12.9 | 0.00 | 0.00 | 0.00 | 90 | 1014.8 |
| 20260506212917 | 8 | 74 | 4.8 | 16.1 | 0.00 | 0.00 | 0.00 | 90 | 1014.6 |
| 20260506211803 | 8 | 70 | 4.8 | 12.9 | 0.00 | 0.00 | 0.00 | 89 | 1014.5 |
| 20260506210903 | 8 | 67 | 6.4 | 16.1 | 0.00 | 0.00 | 0.00 | 89 | 1014.5 |
| 20260506205403 | 8 | 62 | 8.0 | 22.5 | 0.00 | 0.00 | 0.00 | 89 | 1014.2 |
| 20260506204503 | 8 | 59 | 8.0 | 19.3 | 0.00 | 0.00 | 0.00 | 89 | 1014.5 |
| 20260506203603 | 9 | 57 | 6.4 | 19.3 | 0.00 | 0.00 | 0.00 | 88 | 1014.2 |
| 20260506202703 | 9 | 59 | 6.4 | 16.1 | 0.00 | 0.00 | 0.00 | 88 | 1014.6 |
| 20260506201803 | 9 | 56 | 8.0 | 19.3 | 0.00 | 0.00 | 0.00 | 87 | 1014.4 |
| 20260506200003 | 10 | 62 | 8.0 | 19.3 | 0.00 | 0.00 | 0.00 | 86 | 1014.2 |
| 20260506195403 | 10 | 60 | 8.0 | 24.1 | 0.00 | 0.00 | 0.00 | 85 | 1014.5 |
| 20260506194717 | 10 | 60 | 8.0 | 24.1 | 0.00 | 0.00 | 0.00 | 83 | 1014.2 |
| 20260506193817 | 10 | 60 | 6.4 | 17.7 | 0.00 | 0.00 | 0.00 | 82 | 1014.0 |
| 20260506192703 | 10 | 69 | 3.2 | 11.3 | 0.00 | 0.00 | 0.00 | 81 | 1013.9 |
| 20260506190003 | 11 | 53 | 8.0 | 17.7 | 0.00 | 0.00 | 0.00 | 77 | 1013.8 |
| 20260506185618 | 12 | 55 | 8.0 | 17.7 | 0.00 | 0.00 | 0.00 | 76 | 1013.8 |
| 20260506184717 | 12 | 55 | 6.4 | 17.7 | 0.00 | 0.00 | 0.00 | 74 | 1013.7 |
| 20260506183603 | 12 | 53 | 8.0 | 16.1 | 0.00 | 0.00 | 0.00 | 72 | 1013.6 |
| 20260506182703 | 13 | 59 | 3.2 | 9.7 | 0.00 | 0.00 | 0.00 | 69 | 1013.6 |
| 20260506180218 | 13 | 56 | 8.0 | 19.3 | 0.00 | 0.00 | 0.00 | 63 | 1013.6 |
| 20260506175403 | 14 | 62 | 8.0 | 19.3 | 0.00 | 0.00 | 0.00 | 61 | 1013.5 |
| 20260506174503 | 14 | 54 | 6.4 | 14.5 | 0.00 | 0.00 | 0.00 | 62 | 1013.6 |
| 20260506173818 | 15 | 64 | 4.8 | 14.5 | 0.00 | 0.00 | 0.00 | 59 | 1013.6 |
| 20260506172703 | 15 | 37 | 4.8 | 12.9 | 0.00 | 0.00 | 0.00 | 54 | 1013.9 |
| 20260506170903 | 15 | 16 | 4.8 | 11.3 | 0.00 | 0.03 | 0.00 | 53 | 1013.8 |
| 20260506170003 | 15 | 27 | 3.2 | 6.4 | 0.00 | 0.03 | 0.00 | 54 | 1013.7 |
| 20260506165403 | 14 | 36 | 3.2 | 4.8 | 0.00 | 0.05 | 0.00 | 54 | 1013.9 |
| 20260506164503 | 13 | 42 | 3.2 | 6.4 | 0.00 | 0.05 | 0.00 | 58 | 1013.9 |
| 20260506163603 | 14 | 44 | 3.2 | 4.8 | 0.00 | 0.05 | 0.00 | 56 | 1013.8 |
| 20260506162018 | 14 | 32 | 4.8 | 9.7 | 0.00 | 0.05 | 0.00 | 54 | 1013.8 |
| 20260506160903 | 14 | 39 | 3.2 | 9.7 | 0.00 | 0.05 | 0.00 | 53 | 1013.8 |
| 20260506160217 | 14 | 31 | 4.8 | 9.7 | 0.00 | 0.05 | 0.00 | 48 | 1013.9 |
| 20260506155617 | 14 | 34 | 3.2 | 6.4 | 0.00 | 0.05 | 0.00 | 48 | 1013.9 |
| 20260506154503 | 14 | 45 | 3.2 | 9.7 | 0.00 | 0.08 | 0.00 | 49 | 1014.0 |
| 20260506150903 | 16 | 315 | 4.8 | 11.3 | 0.00 | 0.30 | 0.00 | 48 | 1014.2 |
| 20260506150219 | 15 | 343 | 3.2 | 11.3 | 0.00 | 0.30 | 0.00 | 48 | 1014.2 |
| 20260506145403 | 16 | 310 | 1.6 | 4.8 | 0.00 | 0.30 | 0.00 | 47 | 1014.4 |
| 20260506144503 | 15 | 222 | 4.8 | 11.3 | 0.00 | 0.30 | 0.00 | 46 | 1014.4 |
| 20260506143603 | 15 | 33 | 1.6 | 6.4 | 0.00 | 0.30 | 0.00 | 49 | 1014.7 |
| 20260506142703 | 13 | 37 | 1.6 | 4.8 | 0.00 | 0.30 | 0.00 | 54 | 1014.6 |
| 20260506141803 | 13 | 26 | 4.8 | 12.9 | 0.00 | 0.30 | 0.00 | 56 | 1014.7 |
| 20260506140903 | 14 | 25 | 4.8 | 12.9 | 0.00 | 0.30 | 0.00 | 54 | 1014.8 |
| 20260506140003 | 16 | 308 | 4.8 | 12.9 | 0.00 | 0.30 | 0.00 | 53 | 1014.9 |
| 20260506135403 | 15 | 230 | 4.8 | 11.3 | 0.00 | 0.30 | 0.00 | 53 | 1014.8 |
| 20260506134503 | 15 | 210 | 4.8 | 9.7 | 0.00 | 0.30 | 0.00 | 52 | 1015.1 |
| 20260506131804 | 15 | 305 | 3.2 | 9.7 | 0.00 | 0.30 | 0.00 | 50 | 1015.3 |
| 20260506130903 | 15 | 328 | 4.8 | 9.7 | 0.00 | 0.30 | 0.00 | 54 | 1015.4 |
| 20260506130004 | 15 | 306 | 3.2 | 9.7 | 0.00 | 0.30 | 0.00 | 53 | 1015.2 |
| 20260506125403 | 15 | 268 | 3.2 | 11.3 | 0.00 | 0.30 | 0.00 | 56 | 1015.2 |
| 20260506123603 | 14 | 257 | 3.2 | 9.7 | 0.00 | 0.30 | 0.00 | 56 | 1015.2 |
| 20260506122917 | 13 | 284 | 4.8 | 11.3 | 0.00 | 0.30 | 0.00 | 55 | 1015.5 |
| 20260506121803 | 13 | 233 | 3.2 | 9.7 | 0.00 | 0.30 | 0.00 | 61 | 1015.4 |
| 20260506120903 | 12 | 251 | 4.8 | 9.7 | 0.00 | 0.30 | 0.00 | 63 | 1015.5 |
| 20260506120004 | 12 | 12 | 3.2 | 11.3 | 0.00 | 0.30 | 0.00 | 61 | 1015.6 |
| 20260506114503 | 14 | 260 | 4.8 | 12.9 | 0.00 | 0.30 | 0.00 | 59 | 1015.8 |
| 20260506113603 | 13 | 6 | 4.8 | 9.7 | 0.00 | 0.30 | 0.00 | 60 | 1015.7 |
| 20260506112917 | 12 | 48 | 3.2 | 6.4 | 0.00 | 0.30 | 0.00 | 59 | 1015.8 |
| 20260506111803 | 12 | 192 | 3.2 | 11.3 | 0.00 | 0.30 | 0.00 | 62 | 1015.9 |
| 20260506110003 | 11 | 301 | 3.2 | 9.7 | 0.00 | 0.30 | 0.00 | 65 | 1015.9 |
| 20260506105403 | 12 | 2 | 3.2 | 9.7 | 0.00 | 0.30 | 0.00 | 63 | 1015.9 |
| 20260506104503 | 12 | 8 | 3.2 | 9.7 | 0.00 | 0.30 | 0.00 | 64 | 1016.0 |
| 20260506103817 | 12 | 308 | 3.2 | 11.3 | 0.00 | 0.30 | 0.00 | 65 | 1015.8 |
| 20260506102919 | 12 | 216 | 3.2 | 9.7 | 0.00 | 0.30 | 0.00 | 68 | 1015.7 |
| 20260506100003 | 11 | 199 | 1.6 | 4.8 | 0.00 | 0.30 | 0.00 | 67 | 1016.2 |
| 20260506095403 | 11 | 162 | 1.6 | 4.8 | 0.00 | 0.30 | 0.00 | 70 | 1016.2 |
| 20260506094503 | 10 | 343 | 1.6 | 6.4 | 0.00 | 0.30 | 0.00 | 70 | 1016.2 |
| 20260506093603 | 10 | 314 | 3.2 | 6.4 | 0.00 | 0.30 | 0.00 | 73 | 1016.1 |
| 20260506092703 | 10 | 310 | 4.8 | 12.9 | 0.00 | 0.30 | 0.00 | 74 | 1016.1 |
| 20260506091803 | 12 | 242 | 1.6 | 9.7 | 0.00 | 0.30 | 0.00 | 73 | 1015.8 |
| 20260506090903 | 11 | 205 | 3.2 | 6.4 | 0.00 | 0.30 | 0.00 | 74 | 1016.0 |
| 20260506090003 | 10 | 241 | 3.2 | 11.3 | 0.00 | 0.30 | 0.00 | 78 | 1015.9 |
| 20260506085403 | 9 | 247 | 4.8 | 11.3 | 0.00 | 0.30 | 0.00 | 78 | 1016.1 |
| 20260506084504 | 10 | 263 | 3.2 | 6.4 | 0.00 | 0.30 | 0.00 | 76 | 1015.9 |
| 20260506083603 | 10 | 206 | 1.6 | 6.4 | 0.00 | 0.30 | 0.00 | 77 | 1015.9 |
| 20260506080903 | 9 | 172 | 0.0 | 3.2 | 0.00 | 0.30 | 0.00 | 83 | 1015.9 |
| 20260506071803 | 7 | 51 | 0.0 | 1.6 | 0.00 | 0.30 | 0.00 | 91 | 1015.8 |
| 20260506070903 | 7 | 119 | 0.0 | 1.6 | 0.00 | 0.30 | 0.00 | 92 | 1015.8 |
| 20260506061803 | 5 | 59 | 0.0 | 3.2 | 0.00 | 0.30 | 0.00 | 99 | 1015.7 |